Time,TemperatureF,DewpointF,PressureIn,WindDirection,WindDirectionDegrees,WindSpeedMPH,WindSpeedGustMPH,Humidity,HourlyPrecipIn,Conditions,Clouds,dailyrainin,SoftwareType,DateUTC
2013-01-28 00:00:00,44.8,35.2,29.98,SE,136,3.0,3.0,69,0.00,,,0.00,Wunderground v.1.15,2013-01-28 07:00:00,
2013-01-28 00:10:00,44.7,35.1,29.98,ESE,103,2.0,2.0,69,0.00,,,0.00,Wunderground v.1.15,2013-01-28 07:10:00,
2013-01-28 00:15:00,44.7,35.1,29.98,ESE,121,3.0,3.0,69,0.00,,,0.00,Wunderground v.1.15,2013-01-28 07:15:00,
2013-01-28 00:25:00,44.6,34.7,29.97,ESE,121,3.0,3.0,68,0.00,,,0.00,Wunderground v.1.15,2013-01-28 07:25:00,
2013-01-28 00:35:00,44.3,34.8,29.98,ESE,120,3.0,6.0,69,0.00,,,0.00,Wunderground v.1.15,2013-01-28 07:35:00,
2013-01-28 00:40:00,44.0,34.5,29.97,SE,131,3.0,3.0,69,0.00,,,0.00,Wunderground v.1.15,2013-01-28 07:40:00,
2013-01-28 00:50:00,43.6,34.5,29.97,SE,136,2.0,2.0,70,0.00,,,0.00,Wunderground v.1.15,2013-01-28 07:50:00,
2013-01-28 00:55:00,43.4,34.3,29.97,ESE,122,2.0,2.0,70,0.00,,,0.00,Wunderground v.1.15,2013-01-28 07:55:00,
2013-01-28 01:00:00,43.3,34.2,29.97,SE,133,2.0,3.0,70,0.00,,,0.00,Wunderground v.1.15,2013-01-28 08:00:00,
2013-01-28 01:10:00,43.2,34.1,29.97,ESE,121,3.0,3.0,70,0.00,,,0.00,Wunderground v.1.15,2013-01-28 08:10:00,
2013-01-28 01:20:00,43.1,34.3,29.96,SE,139,2.0,2.0,71,0.00,,,0.00,Wunderground v.1.15,2013-01-28 08:20:00,
2013-01-28 01:30:00,43.0,34.2,29.96,East,96,0.0,0.0,71,0.00,,,0.00,Wunderground v.1.15,2013-01-28 08:30:00,
2013-01-28 01:40:00,43.2,34.1,29.95,ESE,112,1.0,2.0,70,0.00,,,0.00,Wunderground v.1.15,2013-01-28 08:40:00,
2013-01-28 01:50:00,43.2,34.1,29.95,ESE,122,1.0,1.0,70,0.00,,,0.00,Wunderground v.1.15,2013-01-28 08:50:00,
2013-01-28 01:55:00,43.1,34.0,29.95,ESE,109,0.0,1.0,70,0.00,,,0.00,Wunderground v.1.15,2013-01-28 08:55:00,
2013-01-28 02:00:00,42.9,34.1,29.95,ESE,122,0.0,0.0,71,0.00,,,0.00,Wunderground v.1.15,2013-01-28 09:00:00,
2013-01-28 02:10:00,42.9,34.1,29.95,SE,143,1.0,3.0,71,0.00,,,0.00,Wunderground v.1.15,2013-01-28 09:10:00,
2013-01-28 02:15:00,43.2,34.1,29.95,SSE,153,2.0,3.0,70,0.00,,,0.00,Wunderground v.1.15,2013-01-28 09:15:00,
2013-01-28 02:25:00,43.5,34.0,29.94,SE,128,2.0,3.0,69,0.00,,,0.00,Wunderground v.1.15,2013-01-28 09:25:00,
2013-01-28 02:35:00,43.5,34.0,29.94,ESE,118,1.0,2.0,69,0.00,,,0.00,Wunderground v.1.15,2013-01-28 09:35:00,
2013-01-28 02:40:00,43.7,33.8,29.94,SE,128,2.0,3.0,68,0.00,,,0.00,Wunderground v.1.15,2013-01-28 09:40:00,
2013-01-28 02:50:00,43.9,34.0,29.94,ESE,110,3.0,3.0,68,0.00,,,0.00,Wunderground v.1.15,2013-01-28 09:50:00,
2013-01-28 02:55:00,44.0,34.1,29.94,SE,128,3.0,4.0,68,0.00,,,0.00,Wunderground v.1.15,2013-01-28 09:55:00,
2013-01-28 03:00:00,44.0,34.1,29.94,SE,124,4.0,4.0,68,0.00,,,0.00,Wunderground v.1.15,2013-01-28 10:00:00,
2013-01-28 03:10:00,43.7,34.2,29.94,SE,126,3.0,4.0,69,0.00,,,0.00,Wunderground v.1.15,2013-01-28 10:10:00,
2013-01-28 03:15:00,43.7,34.6,29.94,SE,146,3.0,5.0,70,0.00,,,0.00,Wunderground v.1.15,2013-01-28 10:15:00,
2013-01-28 03:25:00,43.7,35.3,29.94,ESE,111,3.0,3.0,72,0.00,,,0.00,Wunderground v.1.15,2013-01-28 10:25:00,
2013-01-28 03:35:00,43.7,35.6,29.94,ESE,113,3.0,5.0,73,0.00,,,0.00,Wunderground v.1.15,2013-01-28 10:35:00,
2013-01-28 03:45:00,43.7,36.0,29.94,ESE,120,4.0,4.0,74,0.00,,,0.00,Wunderground v.1.15,2013-01-28 10:45:00,
2013-01-28 03:50:00,43.5,35.8,29.94,SE,135,4.0,4.0,74,0.00,,,0.00,Wunderground v.1.15,2013-01-28 10:50:00,
2013-01-28 04:00:00,43.0,36.0,29.94,SSE,152,4.0,4.0,76,0.00,,,0.00,Wunderground v.1.15,2013-01-28 11:00:00,
2013-01-28 04:10:00,42.5,35.8,29.93,SE,128,2.0,2.0,77,0.00,,,0.00,Wunderground v.1.15,2013-01-28 11:10:00,
2013-01-28 04:15:00,42.3,35.9,29.93,South,173,2.0,3.0,78,0.00,,,0.00,Wunderground v.1.15,2013-01-28 11:15:00,
2013-01-28 04:25:00,42.2,35.8,29.93,SE,124,3.0,3.0,78,0.00,,,0.00,Wunderground v.1.15,2013-01-28 11:25:00,
2013-01-28 04:35:00,42.3,36.3,29.92,SE,125,3.0,3.0,79,0.00,,,0.00,Wunderground v.1.15,2013-01-28 11:35:00,
2013-01-28 04:40:00,42.4,36.3,29.92,SE,127,3.0,6.0,79,0.00,,,0.00,Wunderground v.1.15,2013-01-28 11:40:00,
2013-01-28 04:50:00,42.5,36.4,29.92,SE,129,3.0,3.0,79,0.00,,,0.00,Wunderground v.1.15,2013-01-28 11:50:00,
2013-01-28 04:55:00,42.6,36.5,29.92,ESE,121,4.0,4.0,79,0.00,,,0.00,Wunderground v.1.15,2013-01-28 11:55:00,
2013-01-28 05:00:00,42.5,36.4,29.91,SE,131,3.0,5.0,79,0.00,,,0.00,Wunderground v.1.15,2013-01-28 12:00:00,
2013-01-28 05:10:00,42.5,36.8,29.91,SSE,153,3.0,3.0,80,0.00,,,0.00,Wunderground v.1.15,2013-01-28 12:10:00,
2013-01-28 05:15:00,42.5,36.8,29.91,SE,137,3.0,3.0,80,0.00,,,0.00,Wunderground v.1.15,2013-01-28 12:15:00,
2013-01-28 05:25:00,42.3,36.6,29.91,SE,134,3.0,3.0,80,0.00,,,0.00,Wunderground v.1.15,2013-01-28 12:25:00,
2013-01-28 05:30:00,42.1,36.4,29.91,SE,143,3.0,3.0,80,0.00,,,0.00,Wunderground v.1.15,2013-01-28 12:30:00,
2013-01-28 05:35:00,41.9,36.5,29.91,SE,138,2.0,3.0,81,0.00,,,0.00,Wunderground v.1.15,2013-01-28 12:35:00,
2013-01-28 05:40:00,41.8,36.4,29.91,SE,131,2.0,2.0,81,0.00,,,0.00,Wunderground v.1.15,2013-01-28 12:40:00,
2013-01-28 05:50:00,41.9,36.5,29.91,SE,128,3.0,3.0,81,0.00,,,0.00,Wunderground v.1.15,2013-01-28 12:50:00,
2013-01-28 06:00:00,42.1,36.7,29.91,ESE,117,4.0,5.0,81,0.00,,,0.00,Wunderground v.1.15,2013-01-28 13:00:00,
2013-01-28 06:10:00,42.2,36.5,29.92,SSE,158,4.0,5.0,80,0.00,,,0.00,Wunderground v.1.15,2013-01-28 13:10:00,
2013-01-28 06:15:00,42.1,36.4,29.91,ESE,119,5.0,5.0,80,0.00,,,0.00,Wunderground v.1.15,2013-01-28 13:15:00,
2013-01-28 06:25:00,41.7,36.0,29.91,SE,143,4.0,8.0,80,0.00,,,0.00,Wunderground v.1.15,2013-01-28 13:25:00,
2013-01-28 06:35:00,41.6,35.9,29.92,ESE,105,5.0,7.0,80,0.00,,,0.00,Wunderground v.1.15,2013-01-28 13:35:00,
2013-01-28 06:45:00,41.7,36.0,29.91,ESE,118,5.0,6.0,80,0.00,,,0.00,Wunderground v.1.15,2013-01-28 13:45:00,
2013-01-28 06:50:00,41.9,35.9,29.91,SSE,151,6.0,6.0,79,0.00,,,0.00,Wunderground v.1.15,2013-01-28 13:50:00,
2013-01-28 06:55:00,41.9,35.9,29.91,SE,129,6.0,6.0,79,0.00,,,0.00,Wunderground v.1.15,2013-01-28 13:55:00,
2013-01-28 07:00:00,42.0,36.0,29.91,SE,136,6.0,10.0,79,0.00,,,0.00,Wunderground v.1.15,2013-01-28 14:00:00,
2013-01-28 07:10:00,42.3,35.9,29.91,ESE,117,6.0,6.0,78,0.00,,,0.00,Wunderground v.1.15,2013-01-28 14:10:00,
2013-01-28 07:15:00,42.4,36.0,29.91,SE,139,5.0,6.0,78,0.00,,,0.00,Wunderground v.1.15,2013-01-28 14:15:00,
2013-01-28 07:25:00,42.7,36.0,29.91,SSW,196,7.0,7.0,77,0.00,,,0.00,Wunderground v.1.15,2013-01-28 14:25:00,
2013-01-28 07:35:00,42.9,36.2,29.91,ESE,115,7.0,11.0,77,0.00,,,0.00,Wunderground v.1.15,2013-01-28 14:35:00,
2013-01-28 07:40:00,43.1,36.0,29.91,SE,146,9.0,9.0,76,0.00,,,0.00,Wunderground v.1.15,2013-01-28 14:40:00,
2013-01-28 07:50:00,43.6,36.2,29.91,SSE,165,8.0,11.0,75,0.00,,,0.00,Wunderground v.1.15,2013-01-28 14:50:00,
2013-01-28 08:00:00,43.7,36.3,29.91,SE,128,9.0,9.0,75,0.00,,,0.00,Wunderground v.1.15,2013-01-28 15:00:00,
2013-01-28 08:10:00,44.1,36.7,29.91,ESE,122,10.0,10.0,75,0.00,,,0.00,Wunderground v.1.15,2013-01-28 15:10:00,
2013-01-28 08:20:00,44.6,36.5,29.91,SE,142,9.0,9.0,73,0.00,,,0.00,Wunderground v.1.15,2013-01-28 15:20:00,
2013-01-28 08:25:00,44.8,36.7,29.91,SE,129,7.0,9.0,73,0.00,,,0.00,Wunderground v.1.15,2013-01-28 15:25:00,
2013-01-28 08:35:00,45.2,36.7,29.91,SE,132,8.0,11.0,72,0.00,,,0.00,Wunderground v.1.15,2013-01-28 15:35:00,
2013-01-28 08:40:00,45.3,36.8,29.91,SE,132,10.0,10.0,72,0.00,,,0.00,Wunderground v.1.15,2013-01-28 15:40:00,
2013-01-28 08:45:00,45.2,36.7,29.91,SSE,155,10.0,10.0,72,0.00,,,0.00,Wunderground v.1.15,2013-01-28 15:45:00,
2013-01-28 08:55:00,45.7,36.8,29.90,SSE,153,9.0,10.0,71,0.00,,,0.00,Wunderground v.1.15,2013-01-28 15:55:00,
2013-01-28 09:00:00,46.1,37.2,29.90,SSE,166,8.0,8.0,71,0.00,,,0.00,Wunderground v.1.15,2013-01-28 16:00:00,
2013-01-28 09:10:00,46.9,37.3,29.90,SSW,197,10.0,10.0,69,0.00,,,0.00,Wunderground v.1.15,2013-01-28 16:10:00,
2013-01-28 09:20:00,47.3,37.3,29.89,SE,141,9.0,9.0,68,0.00,,,0.00,Wunderground v.1.15,2013-01-28 16:20:00,
2013-01-28 09:30:00,47.1,37.4,29.89,ESE,118,9.0,9.0,69,0.00,,,0.00,Wunderground v.1.15,2013-01-28 16:30:00,
2013-01-28 09:40:00,47.8,37.7,29.89,SSE,158,9.0,17.0,68,0.00,,,0.00,Wunderground v.1.15,2013-01-28 16:40:00,
2013-01-28 09:45:00,48.2,37.8,29.89,SSE,149,10.0,21.0,67,0.00,,,0.00,Wunderground v.1.15,2013-01-28 16:45:00,
2013-01-28 09:50:00,48.4,37.6,29.89,South,186,10.0,10.0,66,0.00,,,0.00,Wunderground v.1.15,2013-01-28 16:50:00,
2013-01-28 10:00:00,48.6,37.7,29.89,SSW,194,11.0,11.0,66,0.00,,,0.00,Wunderground v.1.15,2013-01-28 17:00:00,
2013-01-28 10:10:00,48.7,37.5,29.89,SSE,157,10.0,11.0,65,0.00,,,0.00,Wunderground v.1.15,2013-01-28 17:10:00,
2013-01-28 10:20:00,49.4,37.3,29.89,SE,134,10.0,10.0,63,0.00,,,0.00,Wunderground v.1.15,2013-01-28 17:20:00,
2013-01-28 10:25:00,49.8,37.3,29.89,SSE,156,8.0,10.0,62,0.00,,,0.00,Wunderground v.1.15,2013-01-28 17:25:00,
2013-01-28 10:35:00,49.7,37.2,29.88,SSE,149,9.0,13.0,62,0.00,,,0.00,Wunderground v.1.15,2013-01-28 17:35:00,
2013-01-28 10:45:00,49.4,37.3,29.89,SE,146,9.0,10.0,63,0.00,,,0.00,Wunderground v.1.15,2013-01-28 17:45:00,
2013-01-28 10:55:00,49.5,37.0,29.88,SSE,159,8.0,11.0,62,0.00,,,0.00,Wunderground v.1.15,2013-01-28 17:55:00,
2013-01-28 11:00:00,49.6,37.1,29.88,SSE,168,8.0,8.0,62,0.00,,,0.00,Wunderground v.1.15,2013-01-28 18:00:00,
2013-01-28 11:10:00,49.6,36.7,29.87,SE,129,6.0,7.0,61,0.00,,,0.00,Wunderground v.1.15,2013-01-28 18:10:00,
2013-01-28 11:15:00,49.3,36.4,29.87,SSE,158,7.0,8.0,61,0.00,,,0.00,Wunderground v.1.15,2013-01-28 18:15:00,
2013-01-28 11:25:00,49.2,35.9,29.87,SSE,153,6.0,11.0,60,0.00,,,0.00,Wunderground v.1.15,2013-01-28 18:25:00,
2013-01-28 11:35:00,49.4,35.7,29.86,SE,138,6.0,7.0,59,0.00,,,0.00,Wunderground v.1.15,2013-01-28 18:35:00,
2013-01-28 11:40:00,49.5,35.3,29.86,South,172,5.0,5.0,58,0.00,,,0.00,Wunderground v.1.15,2013-01-28 18:40:00,
2013-01-28 11:50:00,49.5,35.3,29.85,SSE,149,7.0,10.0,58,0.00,,,0.00,Wunderground v.1.15,2013-01-28 18:50:00,
2013-01-28 11:55:00,49.5,35.3,29.85,SW,233,7.0,10.0,58,0.00,,,0.00,Wunderground v.1.15,2013-01-28 18:55:00,
2013-01-28 12:00:00,49.5,35.3,29.85,SSW,207,7.0,7.0,58,0.00,,,0.00,Wunderground v.1.15,2013-01-28 19:00:00,
2013-01-28 12:10:00,49.5,35.3,29.84,South,188,5.0,6.0,58,0.00,,,0.00,Wunderground v.1.15,2013-01-28 19:10:00,
2013-01-28 12:15:00,49.7,35.1,29.83,SSW,201,6.0,6.0,57,0.00,,,0.00,Wunderground v.1.15,2013-01-28 19:15:00,
2013-01-28 12:25:00,50.1,35.4,29.83,South,190,6.0,8.0,57,0.00,,,0.00,Wunderground v.1.15,2013-01-28 19:25:00,
2013-01-28 12:30:00,50.3,35.2,29.82,SE,138,7.0,8.0,56,0.00,,,0.00,Wunderground v.1.15,2013-01-28 19:30:00,
2013-01-28 12:40:00,50.2,35.5,29.82,SSW,203,8.0,8.0,57,0.00,,,0.00,Wunderground v.1.15,2013-01-28 19:40:00,
2013-01-28 12:45:00,50.3,35.2,29.82,South,181,7.0,11.0,56,0.00,,,0.00,Wunderground v.1.15,2013-01-28 19:45:00,
2013-01-28 12:55:00,50.5,34.5,29.82,SW,219,7.0,8.0,54,0.00,,,0.00,Wunderground v.1.15,2013-01-28 19:55:00,
2013-01-28 13:00:00,50.7,34.6,29.81,SSW,204,7.0,7.0,54,0.00,,,0.00,Wunderground v.1.15,2013-01-28 20:00:00,
2013-01-28 13:10:00,51.3,34.7,29.81,SSE,148,6.0,9.0,53,0.00,,,0.00,Wunderground v.1.15,2013-01-28 20:10:00,
2013-01-28 13:15:00,51.3,34.3,29.81,SE,143,8.0,9.0,52,0.00,,,0.00,Wunderground v.1.15,2013-01-28 20:15:00,
2013-01-28 13:25:00,51.7,34.1,29.80,SE,124,5.0,7.0,51,0.00,,,0.00,Wunderground v.1.15,2013-01-28 20:25:00,
2013-01-28 13:30:00,51.8,34.2,29.80,SSW,204,7.0,7.0,51,0.00,,,0.00,Wunderground v.1.15,2013-01-28 20:30:00,
2013-01-28 13:35:00,52.2,34.1,29.79,SSW,200,7.0,7.0,50,0.00,,,0.00,Wunderground v.1.15,2013-01-28 20:35:00,
2013-01-28 13:40:00,52.9,34.8,29.79,South,186,6.0,8.0,50,0.00,,,0.00,Wunderground v.1.15,2013-01-28 20:40:00,
2013-01-28 13:50:00,53.5,34.3,29.78,WSW,242,5.0,9.0,48,0.00,,,0.00,Wunderground v.1.15,2013-01-28 20:50:00,
2013-01-28 13:55:00,53.4,34.2,29.78,South,170,4.0,9.0,48,0.00,,,0.00,Wunderground v.1.15,2013-01-28 20:55:00,
2013-01-28 14:00:00,53.6,33.8,29.78,SSW,212,5.0,10.0,47,0.00,,,0.00,Wunderground v.1.15,2013-01-28 21:00:00,
2013-01-28 14:10:00,54.8,32.1,29.77,WSW,248,8.0,13.0,42,0.00,,,0.00,Wunderground v.1.15,2013-01-28 21:10:00,
2013-01-28 14:15:00,55.7,31.1,29.76,South,169,7.0,13.0,39,0.00,,,0.00,Wunderground v.1.15,2013-01-28 21:15:00,
2013-01-28 14:25:00,55.0,31.7,29.77,SSW,198,8.0,12.0,41,0.00,,,0.00,Wunderground v.1.15,2013-01-28 21:25:00,
2013-01-28 14:35:00,54.6,30.1,29.76,West,269,6.0,10.0,39,0.00,,,0.00,Wunderground v.1.15,2013-01-28 21:35:00,
2013-01-28 14:45:00,54.8,27.6,29.77,SSW,201,7.0,10.0,35,0.00,,,0.00,Wunderground v.1.15,2013-01-28 21:45:00,
2013-01-28 14:50:00,54.7,28.2,29.76,SSW,203,9.0,9.0,36,0.00,,,0.00,Wunderground v.1.15,2013-01-28 21:50:00,
2013-01-28 15:00:00,54.3,27.2,29.77,SW,222,9.0,9.0,35,0.00,,,0.00,Wunderground v.1.15,2013-01-28 22:00:00,
2013-01-28 15:10:00,54.2,27.1,29.76,SW,233,8.0,8.0,35,0.00,,,0.00,Wunderground v.1.15,2013-01-28 22:10:00,
2013-01-28 15:15:00,54.1,27.7,29.76,SSW,200,8.0,10.0,36,0.00,,,0.00,Wunderground v.1.15,2013-01-28 22:15:00,
2013-01-28 15:25:00,53.8,27.4,29.76,SSW,193,6.0,7.0,36,0.00,,,0.00,Wunderground v.1.15,2013-01-28 22:25:00,
2013-01-28 15:30:00,53.7,26.7,29.76,SW,225,6.0,6.0,35,0.00,,,0.00,Wunderground v.1.15,2013-01-28 22:30:00,
2013-01-28 15:35:00,53.8,26.8,29.76,SW,214,5.0,6.0,35,0.00,,,0.00,Wunderground v.1.15,2013-01-28 22:35:00,
2013-01-28 15:45:00,53.2,28.2,29.76,South,180,6.0,7.0,38,0.00,,,0.00,Wunderground v.1.15,2013-01-28 22:45:00,
2013-01-28 15:55:00,51.9,30.6,29.76,SW,225,8.0,8.0,44,0.00,,,0.01,Wunderground v.1.15,2013-01-28 22:55:00,
2013-01-28 16:00:00,50.8,31.8,29.76,WSW,245,7.0,12.0,48,0.12,,,0.02,Wunderground v.1.15,2013-01-28 23:00:00,
2013-01-28 16:10:00,50.0,32.1,29.76,SSW,210,5.0,8.0,50,0.05,,,0.02,Wunderground v.1.15,2013-01-28 23:10:00,
2013-01-28 16:20:00,50.6,31.6,29.76,WSW,245,5.0,7.0,48,0.00,,,0.02,Wunderground v.1.15,2013-01-28 23:20:00,
2013-01-28 16:25:00,50.8,31.3,29.77,SW,226,4.0,7.0,47,0.00,,,0.02,Wunderground v.1.15,2013-01-28 23:25:00,
2013-01-28 16:35:00,51.2,31.1,29.77,SW,220,4.0,4.0,46,0.00,,,0.02,Wunderground v.1.15,2013-01-28 23:35:00,
2013-01-28 16:45:00,51.8,30.6,29.78,WSW,252,6.0,10.0,44,0.00,,,0.02,Wunderground v.1.15,2013-01-28 23:45:00,
2013-01-28 16:55:00,51.8,29.4,29.79,WSW,258,7.0,7.0,42,0.00,,,0.02,Wunderground v.1.15,2013-01-28 23:55:00,
2013-01-28 17:00:00,50.6,30.6,29.79,West,269,8.0,8.0,46,0.00,,,0.02,Wunderground v.1.15,2013-01-29 00:00:00,
2013-01-28 17:10:00,48.1,31.8,29.80,WNW,303,9.0,9.0,53,0.00,,,0.02,Wunderground v.1.15,2013-01-29 00:10:00,
2013-01-28 17:20:00,47.2,31.8,29.80,SW,236,5.0,8.0,55,0.00,,,0.02,Wunderground v.1.15,2013-01-29 00:20:00,
2013-01-28 17:25:00,46.9,32.0,29.80,WSW,258,7.0,8.0,56,0.00,,,0.02,Wunderground v.1.15,2013-01-29 00:25:00,
2013-01-28 17:35:00,46.5,32.1,29.80,West,278,5.0,6.0,57,0.00,,,0.02,Wunderground v.1.15,2013-01-29 00:35:00,
2013-01-28 17:45:00,46.3,32.3,29.81,WSW,243,5.0,6.0,58,0.00,,,0.02,Wunderground v.1.15,2013-01-29 00:45:00,
2013-01-28 17:50:00,46.2,32.2,29.81,West,264,5.0,7.0,58,0.00,,,0.02,Wunderground v.1.15,2013-01-29 00:50:00,
2013-01-28 18:00:00,46.0,32.5,29.82,West,277,5.0,5.0,59,0.00,,,0.02,Wunderground v.1.15,2013-01-29 01:00:00,
2013-01-28 18:10:00,45.1,32.0,29.83,North,356,7.0,7.0,60,0.00,,,0.02,Wunderground v.1.15,2013-01-29 01:10:00,
2013-01-28 18:20:00,43.5,32.1,29.84,NW,314,8.0,12.0,64,0.00,,,0.02,Wunderground v.1.15,2013-01-29 01:20:00,
2013-01-28 18:25:00,42.9,31.9,29.84,West,259,7.0,12.0,65,0.00,,,0.02,Wunderground v.1.15,2013-01-29 01:25:00,
2013-01-28 18:35:00,42.3,31.7,29.84,NW,317,4.0,5.0,66,0.00,,,0.02,Wunderground v.1.15,2013-01-29 01:35:00,
2013-01-28 18:40:00,42.0,31.8,29.84,WSW,240,3.0,3.0,67,0.00,,,0.02,Wunderground v.1.15,2013-01-29 01:40:00,
2013-01-28 18:50:00,41.8,31.3,29.84,WSW,253,2.0,5.0,66,0.00,,,0.02,Wunderground v.1.15,2013-01-29 01:50:00,
2013-01-28 19:00:00,41.6,31.1,29.85,WSW,238,1.0,1.0,66,0.00,,,0.02,Wunderground v.1.15,2013-01-29 02:00:00,
2013-01-28 19:10:00,41.5,30.6,29.85,WSW,248,1.0,1.0,65,0.00,,,0.02,Wunderground v.1.15,2013-01-29 02:10:00,
2013-01-28 19:15:00,41.5,30.6,29.86,SE,136,1.0,1.0,65,0.00,,,0.02,Wunderground v.1.15,2013-01-29 02:15:00,
2013-01-28 19:25:00,41.7,29.6,29.86,NNW,340,1.0,1.0,62,0.00,,,0.02,Wunderground v.1.15,2013-01-29 02:25:00,
2013-01-28 19:35:00,42.4,28.7,29.86,West,262,3.0,6.0,58,0.00,,,0.02,Wunderground v.1.15,2013-01-29 02:35:00,
2013-01-28 19:40:00,42.7,28.1,29.86,West,270,3.0,5.0,56,0.00,,,0.02,Wunderground v.1.15,2013-01-29 02:40:00,
2013-01-28 19:50:00,43.0,27.5,29.87,West,266,5.0,5.0,54,0.00,,,0.02,Wunderground v.1.15,2013-01-29 02:50:00,
2013-01-28 19:55:00,43.1,27.1,29.86,NW,306,4.0,5.0,53,0.00,,,0.02,Wunderground v.1.15,2013-01-29 02:55:00,
2013-01-28 20:00:00,43.1,26.7,29.87,West,270,4.0,4.0,52,0.00,,,0.02,Wunderground v.1.15,2013-01-29 03:00:00,
2013-01-28 20:10:00,43.1,26.2,29.87,West,269,4.0,4.0,51,0.00,,,0.02,Wunderground v.1.15,2013-01-29 03:10:00,
2013-01-28 20:20:00,42.9,26.0,29.86,SW,231,3.0,3.0,51,0.00,,,0.02,Wunderground v.1.15,2013-01-29 03:20:00,
2013-01-28 20:30:00,42.6,25.7,29.87,West,261,4.0,4.0,51,0.00,,,0.02,Wunderground v.1.15,2013-01-29 03:30:00,
2013-01-28 20:40:00,42.3,25.0,29.86,WNW,301,3.0,3.0,50,0.00,,,0.02,Wunderground v.1.15,2013-01-29 03:40:00,
2013-01-28 20:45:00,42.1,24.8,29.86,SW,218,3.0,3.0,50,0.00,,,0.02,Wunderground v.1.15,2013-01-29 03:45:00,
2013-01-28 20:50:00,42.0,24.2,29.87,WNW,291,3.0,6.0,49,0.00,,,0.02,Wunderground v.1.15,2013-01-29 03:50:00,
2013-01-28 21:00:00,41.8,23.5,29.87,WNW,293,3.0,3.0,48,0.00,,,0.02,Wunderground v.1.15,2013-01-29 04:00:00,
2013-01-28 21:10:00,41.7,23.4,29.87,WNW,298,4.0,7.0,48,0.00,,,0.02,Wunderground v.1.15,2013-01-29 04:10:00,
2013-01-28 21:20:00,41.4,23.6,29.88,West,264,4.0,5.0,49,0.00,,,0.02,Wunderground v.1.15,2013-01-29 04:20:00,
2013-01-28 21:25:00,41.3,23.6,29.88,NW,311,4.0,9.0,49,0.00,,,0.02,Wunderground v.1.15,2013-01-29 04:25:00,
2013-01-28 21:35:00,40.8,24.1,29.88,NW,318,5.0,5.0,51,0.00,,,0.02,Wunderground v.1.15,2013-01-29 04:35:00,
2013-01-28 21:45:00,40.5,24.2,29.89,West,273,4.0,4.0,52,0.00,,,0.02,Wunderground v.1.15,2013-01-29 04:45:00,
2013-01-28 21:50:00,40.3,25.0,29.89,NNW,333,4.0,6.0,54,0.00,,,0.02,Wunderground v.1.15,2013-01-29 04:50:00,
2013-01-28 21:55:00,39.9,27.5,29.89,NW,309,3.0,6.0,61,0.00,,,0.02,Wunderground v.1.15,2013-01-29 04:55:00,
2013-01-28 22:05:00,39.2,28.4,29.88,NE,50,1.0,2.0,65,0.00,,,0.02,Wunderground v.1.15,2013-01-29 05:05:00,
2013-01-28 22:10:00,38.9,28.5,29.89,SSE,166,1.0,1.0,66,0.00,,,0.02,Wunderground v.1.15,2013-01-29 05:10:00,
2013-01-28 22:15:00,38.8,28.8,29.89,SSW,203,1.0,1.0,67,0.00,,,0.02,Wunderground v.1.15,2013-01-29 05:15:00,
2013-01-28 22:25:00,39.0,23.3,29.89,WNW,291,2.0,4.0,53,0.00,,,0.02,Wunderground v.1.15,2013-01-29 05:25:00,
2013-01-28 22:35:00,39.1,22.0,29.89,SW,231,3.0,5.0,50,0.00,,,0.02,Wunderground v.1.15,2013-01-29 05:35:00,
2013-01-28 22:45:00,38.8,21.3,29.89,WSW,252,4.0,5.0,49,0.00,,,0.02,Wunderground v.1.15,2013-01-29 05:45:00,
2013-01-28 22:55:00,38.5,19.5,29.89,WNW,285,3.0,4.0,46,0.00,,,0.02,Wunderground v.1.15,2013-01-29 05:55:00,
2013-01-28 23:00:00,38.3,19.3,29.88,WSW,243,3.0,4.0,46,0.00,,,0.02,Wunderground v.1.15,2013-01-29 06:00:00,
2013-01-28 23:10:00,38.1,19.6,29.88,SE,146,3.0,3.0,47,0.00,,,0.02,Wunderground v.1.15,2013-01-29 06:10:00,
2013-01-28 23:15:00,37.9,18.4,29.88,West,277,3.0,3.0,45,0.00,,,0.02,Wunderground v.1.15,2013-01-29 06:15:00,
2013-01-28 23:25:00,37.6,17.1,29.89,West,271,3.0,5.0,43,0.00,,,0.02,Wunderground v.1.15,2013-01-29 06:25:00,
2013-01-28 23:30:00,37.5,17.0,29.89,West,264,3.0,3.0,43,0.00,,,0.02,Wunderground v.1.15,2013-01-29 06:30:00,
2013-01-28 23:40:00,37.3,17.4,29.89,South,176,3.0,3.0,44,0.00,,,0.02,Wunderground v.1.15,2013-01-29 06:40:00,
2013-01-28 23:50:00,37.3,17.9,29.89,SSE,150,3.0,3.0,45,0.00,,,0.02,Wunderground v.1.15,2013-01-29 06:50:00,
2013-01-28 23:55:00,37.2,18.3,29.89,SSW,195,4.0,6.0,46,0.00,,,0.02,Wunderground v.1.15,2013-01-29 06:55:00,